Weather History for PPIZ - June, 2013

Change the Weather History Date:

Monday, June 24, 2013

  Actual Average Record
Temperature  
Mean Temperature 40 °F -  
Max Temperature 48 °F 46 °F 68 °F (2005)
Min Temperature 33 °F 36 °F 33 °F (2007)
Degree Days  
Heating Degree Days 24    
Moisture  
Dew Point 35 °F    
Average Humidity 86    
Maximum Humidity 100    
Minimum Humidity 71    
Precipitation  
Precipitation 0.00 in - - ()
Sea Level Pressure  
Sea Level Pressure 29.98 in    
Wind  
Wind Speed 17 mph (NE)    
Max Wind Speed 24 mph    
Max Gust Speed 29 mph    
Visibility 10 miles    
Events      
Averages and records for this station are not official NWS values.
T = Trace of Precipitation, MM = Missing Value Source: NWS Daily Summary

Daily Weather History Graph

Daily Weather History Graph

Search for Another Location

Airport or City:

Trip Planner

Search our weather history database for the weather conditions in past years. The results will help you decide how hot, cold, wet, or windy it might be!

Date:

Astronomy

Dec. 31, 1969 Rise Set
Actual Time Sun does not set Sun does not set
Civil Twilight Sun does not set Sun does not set
Nautical Twilight Sun does not set Sun does not set
Astronomical Twilight Sun does not set Sun does not set
Moon 2:00 AM AKDT (6/24) 6:00 AM AKDT (6/24)
Length of Visible Light 24h 00m
Length of Day
24h 00m
Full, 97% of the Moon is Illuminated
Jun 24
Full
Jun 29
Last Quarter
Jul 7
New
Jul 15
First Quarter
Jul 22
Full

Hourly Weather History & Observations

Time (AKDT) Temp. Windchill Dew Point Humidity Pressure Visibility Wind Dir Wind Speed Gust Speed Precip Events Conditions
12:56 AM 35.6 °F 26.2 °F 33.8 °F 93% 29.95 in 10.0 mi NNE 15.0 mph - N/A   Overcast
1:19 AM 35.6 °F 25.9 °F 33.8 °F 93% 29.95 in 10.0 mi NNE 16.1 mph - N/A   Overcast
1:33 AM 35.6 °F 26.2 °F 33.8 °F 93% 29.95 in 10.0 mi NNE 15.0 mph - N/A   Overcast
1:56 AM 34.9 °F 25.3 °F 32.9 °F 92% 29.96 in 10.0 mi NNE 15.0 mph - N/A   Overcast
2:03 AM 35.6 °F 26.2 °F 33.8 °F 93% 29.95 in 10.0 mi NNE 15.0 mph - N/A   Overcast
2:24 AM 35.6 °F 25.9 °F 33.8 °F 93% 29.96 in 10.0 mi NNE 16.1 mph - N/A   Overcast
2:56 AM 34.9 °F 24.9 °F 32.9 °F 92% 29.97 in 10.0 mi NE 16.1 mph - N/A   Overcast
3:56 AM 34.0 °F 24.6 °F 32.0 °F 92% 29.98 in 10.0 mi NNE 13.8 mph - N/A   Overcast
4:56 AM 34.0 °F 24.6 °F 32.0 °F 92% 29.99 in 10.0 mi NNE 13.8 mph - N/A   Overcast
5:56 AM 34.0 °F 24.2 °F 32.9 °F 96% 29.99 in 10.0 mi NNE 15.0 mph - N/A   Overcast
6:31 AM 33.8 °F 23.9 °F 33.8 °F 100% 29.98 in 10.0 mi NE 15.0 mph - N/A   Overcast
6:56 AM 33.8 °F 23.2 °F 32.0 °F 93% 29.98 in 10.0 mi NNE 17.3 mph - N/A   Mostly Cloudy
7:03 AM 35.6 °F 26.2 °F 32.0 °F 87% 29.98 in 10.0 mi NE 15.0 mph - N/A   Mostly Cloudy
7:15 AM 35.6 °F 25.5 °F 32.0 °F 87% 29.98 in 10.0 mi NE 17.3 mph - N/A   Mostly Cloudy
7:27 AM 35.6 °F 26.2 °F 32.0 °F 87% 29.99 in 10.0 mi NE 15.0 mph - N/A   Mostly Cloudy
7:56 AM 34.9 °F 24.9 °F 32.0 °F 89% 30.00 in 10.0 mi NE 16.1 mph - N/A   Mostly Cloudy
8:11 AM 35.6 °F 25.9 °F 32.0 °F 87% 29.99 in 10.0 mi NE 16.1 mph - N/A   Mostly Cloudy
8:56 AM 36.0 °F 26.7 °F 32.9 °F 89% 30.01 in 10.0 mi NE 15.0 mph - N/A   Overcast
9:40 AM 35.6 °F 25.2 °F 33.8 °F 93% 29.99 in 7.0 mi NE 18.4 mph - N/A   Overcast
9:56 AM 35.6 °F 25.5 °F 33.8 °F 93% 30.00 in 10.0 mi NE 17.3 mph - N/A   Overcast
10:28 AM 37.4 °F 27.8 °F 33.8 °F 87% 30.00 in 10.0 mi NE 17.3 mph - N/A   Overcast
10:56 AM 36.9 °F 26.8 °F 34.0 °F 89% 30.01 in 10.0 mi NE 18.4 mph 24.2 mph N/A   Overcast
11:56 AM 37.9 °F 29.2 °F 34.9 °F 89% 30.02 in 10.0 mi ENE 15.0 mph - N/A   Overcast
12:32 PM 39.2 °F 30.2 °F 35.6 °F 87% 30.00 in 10.0 mi NE 17.3 mph - N/A   Overcast
12:56 PM 39.9 °F 31.1 °F 34.9 °F 82% 30.01 in 10.0 mi NE 17.3 mph - N/A   Mostly Cloudy
1:56 PM 41.9 °F 33.7 °F 36.0 °F 79% 30.01 in 10.0 mi ENE 17.3 mph 24.2 mph N/A   Mostly Cloudy
2:56 PM 43.9 °F 36.2 °F 36.9 °F 76% 30.01 in 10.0 mi ENE 17.3 mph 27.6 mph N/A   Overcast
3:56 PM 43.0 °F 34.2 °F 37.9 °F 82% 30.00 in 10.0 mi NNE 20.7 mph - N/A   Overcast
4:56 PM 43.9 °F 35.2 °F 38.8 °F 82% 29.99 in 10.0 mi NNE 21.9 mph - N/A   Overcast
5:56 PM 45.0 °F 36.4 °F 38.8 °F 79% 29.99 in 10.0 mi NNE 23.0 mph - N/A   Mostly Cloudy
6:21 PM 46.4 °F 38.3 °F 39.2 °F 76% 29.97 in 10.0 mi NNE 23.0 mph - N/A   Scattered Clouds
6:56 PM 46.9 °F - 39.9 °F 77% 29.99 in 10.0 mi NE 21.9 mph - N/A   Scattered Clouds
7:25 PM 46.4 °F 39.0 °F 39.2 °F 76% 29.97 in 10.0 mi NE 19.6 mph - N/A   Mostly Cloudy
7:56 PM 47.8 °F - 39.9 °F 74% 29.98 in 10.0 mi NE 21.9 mph 26.5 mph N/A   Mostly Cloudy
8:03 PM 48.2 °F - 39.2 °F 71% 29.97 in 10.0 mi NE 23.0 mph 28.8 mph N/A   Partly Cloudy
8:56 PM 46.9 °F - 39.9 °F 77% 29.98 in 10.0 mi ENE 19.6 mph 27.6 mph N/A   Clear
9:56 PM 45.9 °F 38.0 °F 38.8 °F 76% 29.97 in 10.0 mi ENE 20.7 mph - N/A   Clear
10:47 PM 44.6 °F 35.9 °F 39.2 °F 81% 29.96 in 10.0 mi ENE 23.0 mph - N/A   Mostly Cloudy
10:56 PM 45.0 °F 36.2 °F 38.8 °F 79% 29.97 in 10.0 mi ENE 24.2 mph 27.6 mph N/A   Mostly Cloudy
11:17 PM 44.6 °F 35.9 °F 37.4 °F 76% 29.96 in 10.0 mi ENE 23.0 mph 28.8 mph N/A   Scattered Clouds
11:56 PM 43.0 °F 34.0 °F 37.9 °F 82% 29.97 in 10.0 mi ENE 21.9 mph - N/A   Mostly Cloudy